Torna al catalogo

QIANFAN-62

AttivoComunicazioniPO
NORAD 62792·PAYLOAD·🇨🇳 China

Lanciato Jan 23, 2025 da Taiyuan Satellite Launch Center

Loading…

Prossimi Passaggi (prossime 24 ore)

TLE

AggiornatoSource: Space-Track

Epoca: Sep 14, 2026, 22:10 UTC

1 62792U 25016H   26257.92369257  .00000039  00000-0  42574-4 0  9993
2 62792  88.9662  74.4162 0014222 264.8649  95.0879 13.51019675 84526

Traccia QIANFAN-62 in tempo reale con AllMySat

Download on the App Store